Location: ?????
(42.2640°N, 43.4211°E)
Time: 14:35:00
(UTC+00:00)

ATLAS CENTAUR R/B - Pass Details

Date: 07 August 2020
Orbit: 476 x 670 km, 64.7° (Epoch: 17 September)

Event Time Altitude Azimuth Distance (km) Brightness Sun altitude
Exits shadow 00:13:53 - 155° (SSE) 2,590 4.6 -18.0°
Maximum altitude 00:18:05 10° 109° (ESE) 1,846 4.3 -17.4°
Drops below altitude 10° 00:18:13 10° 107° (ESE) 1,846 4.4 -17.4°
Sets 00:22:49 0° 59° (ENE) 2,677 6.5 -16.8°
